Location: Gollag?dem
(17.0207°N, 80.7261°E)
Time: 06:27:57
(UTC+00:00)

NATO 3D Rocket - Pass Details

Date: 03 August 2024
Orbit: 670 x 2293 km, 21.5° (Epoch: 10 September)

Event Time Altitude Azimuth Distance (km) Brightness Sun altitude
Exits shadow 22:16:26 51° 1° (N) 837 3.8 -27.4°
Drops below altitude 10° 22:21:06 10° 73° (ENE) 2,184 6.8 -26.4°
Sets 22:23:45 0° 79° (ENE) 3,223 7.9 -25.8°
